Flight Track Log - Related Links

Times and Time Zones

All times are in EDT time to prevent confusion due to time zone crossing. See the N531QS flight status page for this flight to view local times or setup timezone preferences in your user account.

Time Position Orientation Groundspeed Altitude Reporting Facility
EDT Latitude Longitude Course Direction KTS MPH feet Rate Location/Type
Sun 06:24:08 PM 34.8183 -82.2450 196° South 241 277 7,300  Level Atlanta Center
Sun 06:25:08 PM 34.8253 -82.1511 85° East 326 375 10,000 1,950 Climbing Atlanta Center
Sun 06:26:08 PM 34.8950 -82.0786 40° Northeast 331 381 11,200 1,300 Climbing Atlanta Center
Sun 06:27:08 PM 34.9689 -82.0008 41° Northeast 358 412 12,600 900 Climbing Atlanta Center
Sun 06:28:08 PM 35.0636 -81.9250 33° Northeast 391 450 13,000 800 Climbing Atlanta Center
Sun 06:29:08 PM 35.1869 -81.9294 358° North 383 441 14,200 1,100 Climbing Atlanta Center
Sun 06:30:08 PM 35.3039 -81.9367 357° North 396 456 15,200 2,133 Climbing Atlanta Center
Sun 06:32:08 PM 35.5081 -81.7989 29° Northeast 417 480 20,600 2,833 Climbing Atlanta Center
Sun 06:33:08 PM 35.5892 -81.6714 52° Northeast 447 514 23,700 3,150 Climbing Atlanta Center
Sun 06:34:08 PM 35.6572 -81.5339 59° Northeast 469 540 26,900 2,450 Climbing Atlanta Center
Sun 06:35:08 PM 35.7003 -81.4022 68° East 469 540 28,600 1,050 Climbing Atlanta Center
Sun 06:36:08 PM 35.7467 -81.2267 72° East 509 586 29,000 650 Climbing Atlanta Center
Sun 06:37:08 PM 35.7900 -81.0333 75° East 538 619 29,900 1,650 Climbing Atlanta Center
Sun 06:38:08 PM 35.8528 -80.8772 64° Northeast 520 598 32,300 1,500 Climbing Atlanta Center
Sun 06:39:08 PM 35.9214 -80.7156 62° Northeast 515 593 32,900 350 Climbing Atlanta Center
Sun 06:40:08 PM 35.9819 -80.5617 64° Northeast 506 582 33,000 50 Climbing Atlanta Center
Sun 06:41:08 PM 36.0425 -80.4178 62° Northeast 509 586 33,000  Level Atlanta Center
Sun 06:42:08 PM 36.1086 -80.2633 62° Northeast 509 586 33,000  Level Atlanta Center
Sun 06:44:35 PM 36.2667 -79.8917 62° Northeast 485 558 33,000 -116 Level Washington Center
Sun 06:45:35 PM 36.3283 -79.7403 63° Northeast 485 558 32,600 -966 Descending Washington Center
Sun 06:46:33 PM 36.3875 -79.5939 63° Northeast 479 551 31,100 -1,613 Descending Washington Center
Sun 06:47:34 PM 36.4422 -79.4572 64° Northeast 479 551 29,400 -1,623 Descending Washington Center
Sun 06:48:35 PM 36.5011 -79.3103 63° Northeast 479 551 27,800 -1,587 Descending Washington Center
Sun 06:49:35 PM 36.5597 -79.1656 63° Northeast 474 545 26,200 -1,424 Descending Washington Center
Sun 06:50:33 PM 36.6247 -79.0108 62° Northeast 464 534 25,000 -605 Descending Washington Center
Sun 06:51:34 PM 36.6811 -78.8631 65° Northeast 459 528 25,000  Level Washington Center
Sun 06:52:34 PM 36.7453 -78.7231 60° Northeast 459 528 25,000  Level Washington Center
Sun 06:53:33 PM 36.8131 -78.6039 55° Northeast 464 534 25,000 -150 Level Washington Center
Sun 06:54:34 PM 36.8917 -78.4589 56° Northeast 464 534 24,700 -843 Descending Washington Center
Sun 06:55:34 PM 36.9775 -78.3608 42° Northeast 459 528 23,300 -1,240 Descending Washington Center
Sun 06:56:35 PM 37.0814 -78.2811 31° Northeast 442 509 22,200 -645 Descending Washington Center
Sun 06:57:35 PM 37.2000 -78.1967 30° Northeast 442 509 22,000 -102 Descending Washington Center
Sun 06:58:33 PM 37.3019 -78.1192 31° Northeast 435 501 22,000  Level Washington Center
Sun 06:59:35 PM 37.4078 -78.0392 31° Northeast 429 494 22,000  Level Washington Center
Sun 07:00:35 PM 37.5094 -77.9611 31° Northeast 429 494 22,000 -47 Level Washington Center
Sun 07:01:44 PM 37.6156 -77.8806 31° Northeast 435 501 21,900 -1,145 Descending Washington Center
Sun 07:02:46 PM 37.7339 -77.7922 31° Northeast 423 487 19,500 -2,115 Descending Washington Center
Sun 07:03:46 PM 37.8247 -77.7239 31° Northeast 400 460 17,600 -1,785 Descending Washington Center
Sun 07:04:47 PM 37.9217 -77.6714 23° Northeast 384 442 15,900 -1,650 Descending Washington Center
Sun 07:05:46 PM 38.0183 -77.6267 20° North 368 423 14,300 -1,462 Descending Washington Center
Sun 07:06:46 PM 38.1003 -77.5944 17° North 351 404 13,000 -1,450 Descending Washington Center
Sun 07:07:46 PM 38.1922 -77.5758 North 339 390 11,400 -1,587 Descending Washington Center
Sun 07:08:47 PM 38.2775 -77.5914 352° North 326 375 9,800 -1,765 Descending Washington Center
Sun 07:09:45 PM 38.3586 -77.6067 352° North 308 354 7,900 -1,966 Descending Washington Center
Sun 07:10:46 PM 38.4378 -77.6061 360° North 296 341 5,900 -1,636 Descending Washington Center
Sun 07:11:46 PM 38.5075 -77.5631 26° Northeast 268 308 4,600 -942 Descending Washington Center
Sun 07:12:47 PM 38.5808 -77.5383 15° North 268 308 4,000 -300 Descending Washington Center
Sun 07:13:26 PM 38.6500 -77.5167 14° North 275 316 4,100  Climbing Potomac TRACON
Sun 07:14:26 PM 38.7000 -77.4667 38° Northeast 267 307 4,000  Descending Potomac TRACON
Sun 07:15:20 PM 38.7500 -77.4000 46° Northeast 265 305 4,100  Climbing Potomac TRACON
Sun 07:16:20 PM 38.8167 -77.3500 30° Northeast 276 318 4,000 -50 Descending Potomac TRACON
Sun 07:17:20 PM 38.8833 -77.3500 360° North 266 306 4,000 -100 Level Potomac TRACON
Sun 07:18:20 PM 38.9500 -77.3500 360° North 247 284 3,800 -500 Descending Potomac TRACON
Sun 07:19:20 PM 39.0167 -77.3500 360° North 229 264 3,000 -550 Descending Potomac TRACON
Sun 07:20:20 PM 39.0667 -77.3667 345° North 210 242 2,700 -500 Descending Potomac TRACON
Sun 07:21:20 PM 39.0500 -77.4167 247° West 189 217 2,000 -650 Descending Potomac TRACON
Sun 07:22:20 PM 39.0167 -77.4333 201° Southwest 151 174 1,400 -632 Descending Potomac TRACON
Sun 07:23:14 PM 38.9833 -77.4333 180° South 119 137 800 -667 Descending Potomac TRACON
Sun 07:25:00 PM 38.9474 -77.4599 223° Southwest  Level Estimated
Sun 07:32:00 PM 38.9474 -77.4599 223° Southwest  Level Estimated
Sun 07:33:00 PM 38.9474 -77.4599 223° Southwest  Level Estimated
Sun 07:34:00 PM 38.9474 -77.4599 223° Southwest  Level Estimated

Login

Don't have an account? Register now (free) for customized features, flight alerts, and more!